,,,PA_Meas_PMT16A,,PR_Meas_QMR101_102,,RH_Meas_QMH101,,SR_Meas_QMS101,,TA_Meas_QMH101,,GenWind,,GenWind,
date,time,status,PA,status,PR,status,RH,status,SR,status,TA,status,DirAvg,status,SpdAvg,
2012-01-09, 00:00:04,VALID,1000.88,VALID,0,VALID,92.8448,VALID,0,VALID,24.0311,VALID,145,VALID,0.674609,
2012-01-09, 00:01:04,VALID,1000.86,VALID,0,VALID,92.8448,VALID,0,VALID,24.0525,VALID,145,VALID,0.583203,
2012-01-09, 00:02:04,VALID,1000.79,VALID,0,VALID,92.8525,VALID,0.104696,VALID,24.0116,VALID,145,VALID,0.498047,
2012-01-09, 00:03:04,VALID,1000.77,VALID,0,VALID,92.8983,VALID,0.104696,VALID,23.9921,VALID,145,VALID,0.53125,
2012-01-09, 00:04:04,VALID,1000.75,VALID,0,VALID,92.9364,VALID,0.104696,VALID,23.9921,VALID,145,VALID,0.503906,
2012-01-09, 00:05:04,VALID,1000.75,VALID,0,VALID,92.9898,VALID,0,VALID,23.9939,VALID,145,VALID,0.560156,
2012-01-09, 00:06:04,VALID,1000.73,VALID,0,VALID,93.0203,VALID,0,VALID,23.9939,VALID,145,VALID,0.488672,
2012-01-09, 00:07:04,VALID,1000.7,VALID,0,VALID,93.0432,VALID,0,VALID,23.9531,VALID,145,VALID,0.537109,
2012-01-09, 00:08:04,VALID,1000.67,VALID,0,VALID,93.089,VALID,0,VALID,23.9531,VALID,145,VALID,0.305469,
2012-01-09, 00:09:04,VALID,1000.69,VALID,0,VALID,93.1043,VALID,0,VALID,23.9531,VALID,145,VALID,0.0683594,
2012-01-09, 00:10:04,VALID,1000.67,VALID,0,VALID,93.0966,VALID,0,VALID,23.9549,VALID,145,VALID,0.326953,
2012-01-09, 00:11:04,VALID,1000.67,VALID,0,VALID,93.089,VALID,0,VALID,23.914,VALID,145,VALID,0,
2012-01-09, 00:12:04,VALID,1000.64,VALID,0,VALID,93.0508,VALID,0.104696,VALID,23.8963,VALID,145,VALID,0,
2012-01-09, 00:13:04,VALID,1000.61,VALID,0,VALID,93.0508,VALID,0,VALID,23.8963,VALID,145,VALID,0.028125,
2012-01-09, 00:14:04,VALID,1000.55,VALID,0,VALID,93.0508,VALID,0,VALID,23.8555,VALID,145,VALID,0,
2012-01-09, 00:15:04,VALID,1000.52,VALID,0,VALID,93.0814,VALID,0,VALID,23.8573,VALID,145,VALID,0.198437,
2012-01-09, 00:16:04,VALID,1000.46,VALID,0,VALID,93.1119,VALID,0,VALID,23.8378,VALID,145,VALID,0.173828,
2012-01-09, 00:17:04,VALID,1000.45,VALID,0,VALID,93.1653,VALID,0,VALID,23.8378,VALID,145,VALID,0,
2012-01-09, 00:18:04,VALID,1000.42,VALID,0,VALID,93.2034,VALID,0,VALID,23.8183,VALID,145,VALID,0,
2012-01-09, 00:19:04,VALID,1000.37,VALID,0,VALID,93.2721,VALID,0,VALID,23.8378,VALID,145,VALID,0,
2012-01-09, 00:20:04,VALID,1000.36,VALID,0,VALID,93.2797,VALID,0,VALID,23.8183,VALID,145,VALID,0,
2012-01-09, 00:21:04,VALID,1000.36,VALID,0,VALID,93.3408,VALID,0,VALID,23.797,VALID,145,VALID,0,
2012-01-09, 00:22:04,VALID,1000.34,VALID,0,VALID,93.3789,VALID,0,VALID,23.797,VALID,145,VALID,0,
2012-01-09, 00:23:04,VALID,1000.32,VALID,0,VALID,93.4476,VALID,0,VALID,23.7988,VALID,145,VALID,0,
2012-01-09, 00:24:04,VALID,1000.31,VALID,0,VALID,93.4781,VALID,0,VALID,23.8183,VALID,145,VALID,0,
2012-01-09, 00:25:04,VALID,1000.31,VALID,0,VALID,93.5163,VALID,0,VALID,23.8378,VALID,145,VALID,0,
2012-01-09, 00:26:04,VALID,1000.32,VALID,0,VALID,93.5239,VALID,0,VALID,23.8378,VALID,145,VALID,0,
2012-01-09, 00:27:04,VALID,1000.27,VALID,0,VALID,93.5315,VALID,0,VALID,23.8378,VALID,145,VALID,0,
2012-01-09, 00:28:04,VALID,1000.27,VALID,0,VALID,93.5315,VALID,0,VALID,23.797,VALID,145,VALID,0,
2012-01-09, 00:29:04,VALID,1000.28,VALID,0,VALID,93.5239,VALID,0,VALID,23.797,VALID,145,VALID,0,
2012-01-09, 00:30:04,VALID,1000.25,VALID,0,VALID,93.5315,VALID,0,VALID,23.797,VALID,145,VALID,0,
2012-01-09, 00:31:04,VALID,1000.28,VALID,0,VALID,93.5391,VALID,0.104696,VALID,23.7988,VALID,145,VALID,0,
2012-01-09, 00:32:04,VALID,1000.25,VALID,0,VALID,93.5391,VALID,0,VALID,23.7793,VALID,145,VALID,0,
2012-01-09, 00:33:04,VALID,1000.25,VALID,0,VALID,93.5239,VALID,0,VALID,23.7384,VALID,145,VALID,0,
2012-01-09, 00:34:04,VALID,1000.24,VALID,0,VALID,93.5315,VALID,0,VALID,23.7597,VALID,145,VALID,0.397656,
2012-01-09, 00:35:04,VALID,1000.2,VALID,0,VALID,93.5697,VALID,0,VALID,23.7402,VALID,145,VALID,0.393359,
2012-01-09, 00:36:04,VALID,1000.15,VALID,0,VALID,93.6002,VALID,0,VALID,23.7384,VALID,145,VALID,0.342187,
2012-01-09, 00:37:04,VALID,1000.12,VALID,0,VALID,93.6231,VALID,0,VALID,23.7402,VALID,145,VALID,0.367188,
2012-01-09, 00:38:04,VALID,1000.1,VALID,0,VALID,93.6078,VALID,0,VALID,23.7189,VALID,145,VALID,0.514453,
2012-01-09, 00:39:04,VALID,1000.05,VALID,0,VALID,93.6383,VALID,0,VALID,23.7207,VALID,145,VALID,0.6125,
2012-01-09, 00:40:04,VALID,1000.06,VALID,0,VALID,93.6307,VALID,0,VALID,23.7207,VALID,145,VALID,0.69375,
2012-01-09, 00:41:04,VALID,1000.03,VALID,0,VALID,93.707,VALID,0.104696,VALID,23.6994,VALID,145,VALID,0.619922,
2012-01-09, 00:42:04,VALID,1000.02,VALID,0,VALID,93.7375,VALID,0,VALID,23.7207,VALID,145,VALID,0.456641,
2012-01-09, 00:43:04,VALID,1000.02,VALID,0,VALID,93.7528,VALID,0,VALID,23.7189,VALID,145,VALID,0.508984,
2012-01-09, 00:44:04,VALID,1000,VALID,0,VALID,93.7909,VALID,0,VALID,23.7402,VALID,145,VALID,0.635938,
2012-01-09, 00:45:04,VALID,999.996,VALID,0,VALID,93.768,VALID,0,VALID,23.7207,VALID,145,VALID,0.621094,
2012-01-09, 00:46:04,VALID,1000,VALID,0,VALID,93.7909,VALID,0,VALID,23.7012,VALID,145,VALID,0.627344,
2012-01-09, 00:47:04,VALID,999.975,VALID,0,VALID,93.8062,VALID,0,VALID,23.6817,VALID,145,VALID,0.592969,
2012-01-09, 00:48:04,VALID,999.942,VALID,0,VALID,93.8062,VALID,0,VALID,23.7012,VALID,145,VALID,0.675781,
2012-01-09, 00:49:04,VALID,999.942,VALID,0,VALID,93.8138,VALID,0,VALID,23.6799,VALID,96,VALID,0.764844,
2012-01-09, 00:50:04,VALID,999.913,VALID,0,VALID,93.8748,VALID,0,VALID,23.7012,VALID,96,VALID,0.801953,
2012-01-09, 00:51:04,VALID,999.891,VALID,0,VALID,93.9206,VALID,0,VALID,23.7207,VALID,66,VALID,0.992188,
2012-01-09, 00:52:04,VALID,999.904,VALID,0,VALID,93.9283,VALID,0,VALID,23.7207,VALID,66,VALID,0.963281,
2012-01-09, 00:53:04,VALID,999.935,VALID,0,VALID,93.9435,VALID,0,VALID,23.7012,VALID,66,VALID,0.905859,
2012-01-09, 00:54:04,VALID,999.916,VALID,0,VALID,93.9283,VALID,0.104696,VALID,23.7012,VALID,63,VALID,0.801953,
2012-01-09, 00:55:04,VALID,999.852,VALID,0,VALID,93.913,VALID,0,VALID,23.6817,VALID,59,VALID,0.755859,
2012-01-09, 00:56:04,VALID,999.864,VALID,0,VALID,93.9435,VALID,0,VALID,23.6622,VALID,59,VALID,0.711719,
2012-01-09, 00:57:04,VALID,999.831,VALID,0,VALID,93.9435,VALID,0,VALID,23.6622,VALID,59,VALID,0.379687,
2012-01-09, 00:58:04,VALID,999.823,VALID,0,VALID,93.9435,VALID,0,VALID,23.6427,VALID,59,VALID,0.678516,
2012-01-09, 00:59:04,VALID,999.799,VALID,0,VALID,93.9588,VALID,0,VALID,23.6427,VALID,59,VALID,0.586328,
2012-01-09, 01:00:04,VALID,999.783,VALID,0,VALID,93.9588,VALID,0.104696,VALID,23.6427,VALID,59,VALID,0.840625,
2012-01-09, 01:01:04,VALID,999.799,VALID,0,VALID,93.9893,VALID,0,VALID,23.6427,VALID,59,VALID,0.9375,
2012-01-09, 01:02:04,VALID,999.751,VALID,0,VALID,94.0351,VALID,0,VALID,23.6427,VALID,59,VALID,0.778125,
2012-01-09, 01:03:04,VALID,999.742,VALID,0,VALID,94.0274,VALID,0,VALID,23.6427,VALID,59,VALID,0.920703,
2012-01-09, 01:04:04,VALID,999.723,VALID,0,VALID,94.0656,VALID,0,VALID,23.6622,VALID,59,VALID,0.836719,
2012-01-09, 01:05:04,VALID,999.697,VALID,0,VALID,94.0885,VALID,0,VALID,23.6817,VALID,59,VALID,0.894141,
2012-01-09, 01:06:04,VALID,999.665,VALID,0,VALID,94.0732,VALID,0,VALID,23.6817,VALID,59,VALID,0.833203,
2012-01-09, 01:07:04,VALID,999.688,VALID,0,VALID,94.1037,VALID,0,VALID,23.6817,VALID,59,VALID,0.828125,
2012-01-09, 01:08:04,VALID,999.69,VALID,0,VALID,94.119,VALID,0,VALID,23.7225,VALID,60,VALID,1.12461,
2012-01-09, 01:09:04,VALID,999.73,VALID,0,VALID,94.1266,VALID,0,VALID,23.7012,VALID,60,VALID,0.741016,
2012-01-09, 01:10:04,VALID,999.699,VALID,0,VALID,94.1419,VALID,0,VALID,23.7207,VALID,67,VALID,0.721875,
2012-01-09, 01:11:04,VALID,999.732,VALID,0,VALID,94.1648,VALID,0,VALID,23.7597,VALID,75,VALID,0.842578,
2012-01-09, 01:12:04,VALID,999.734,VALID,0,VALID,94.18,VALID,0,VALID,23.7793,VALID,75,VALID,0.569531,
2012-01-09, 01:13:04,VALID,999.747,VALID,0,VALID,94.1877,VALID,0,VALID,23.8183,VALID,75,VALID,0.954297,
2012-01-09, 01:14:04,VALID,999.685,VALID,0,VALID,94.1877,VALID,0,VALID,23.8183,VALID,75,VALID,0.441797,
2012-01-09, 01:15:04,VALID,999.718,VALID,0,VALID,94.18,VALID,0,VALID,23.8378,VALID,75,VALID,0.118359,
2012-01-09, 01:16:04,VALID,999.689,VALID,0,VALID,94.1648,VALID,0,VALID,23.8378,VALID,75,VALID,0.199609,
2012-01-09, 01:17:04,VALID,999.68,VALID,0,VALID,94.1571,VALID,0,VALID,23.8165,VALID,75,VALID,0.103125,
2012-01-09, 01:18:04,VALID,999.654,VALID,0,VALID,94.119,VALID,0,VALID,23.8165,VALID,75,VALID,0.204688,
2012-01-09, 01:19:04,VALID,999.681,VALID,0,VALID,94.1114,VALID,0,VALID,23.8378,VALID,75,VALID,0.336719,
2012-01-09, 01:20:04,VALID,999.682,VALID,0,VALID,94.0808,VALID,0,VALID,23.8378,VALID,75,VALID,0.360938,
2012-01-09, 01:21:04,VALID,999.66,VALID,0,VALID,94.0885,VALID,0,VALID,23.8378,VALID,75,VALID,0.400781,
2012-01-09, 01:22:04,VALID,999.635,VALID,0,VALID,94.0732,VALID,0,VALID,23.8378,VALID,75,VALID,0.335547,
2012-01-09, 01:23:04,VALID,999.638,VALID,0,VALID,94.0427,VALID,0,VALID,23.797,VALID,75,VALID,0.153906,
2012-01-09, 01:24:04,VALID,999.635,VALID,0,VALID,94.0351,VALID,0,VALID,23.8183,VALID,75,VALID,0,
2012-01-09, 01:25:04,VALID,999.636,VALID,0,VALID,93.9969,VALID,0,VALID,23.7988,VALID,75,VALID,0,
2012-01-09, 01:26:04,VALID,999.589,VALID,0,VALID,93.974,VALID,0,VALID,23.7793,VALID,75,VALID,0,
2012-01-09, 01:27:04,VALID,999.6,VALID,0,VALID,93.9817,VALID,0,VALID,23.7793,VALID,75,VALID,0.0953125,
2012-01-09, 01:28:04,VALID,999.578,VALID,0,VALID,93.974,VALID,0,VALID,23.7793,VALID,75,VALID,0.0847656,
2012-01-09, 01:29:04,VALID,999.555,VALID,0,VALID,93.9817,VALID,0,VALID,23.7775,VALID,75,VALID,0.304688,
2012-01-09, 01:30:04,VALID,999.566,VALID,0,VALID,93.9893,VALID,0,VALID,23.7793,VALID,75,VALID,0.374609,
2012-01-09, 01:31:04,VALID,999.548,VALID,0,VALID,94.0122,VALID,0,VALID,23.7793,VALID,75,VALID,0.373437,
2012-01-09, 01:32:04,VALID,999.528,VALID,0,VALID,93.9893,VALID,0,VALID,23.7579,VALID,75,VALID,0.321094,
2012-01-09, 01:33:04,VALID,999.519,VALID,0,VALID,94.0122,VALID,0,VALID,23.7775,VALID,75,VALID,0.228516,
2012-01-09, 01:34:04,VALID,999.523,VALID,0,VALID,94.0351,VALID,0,VALID,23.7793,VALID,75,VALID,0.275391,
2012-01-09, 01:35:04,VALID,999.523,VALID,0,VALID,94.0198,VALID,0,VALID,23.7793,VALID,75,VALID,0.157031,
2012-01-09, 01:36:04,VALID,999.501,VALID,0,VALID,94.0427,VALID,0,VALID,23.7793,VALID,75,VALID,0.046875,
2012-01-09, 01:37:04,VALID,999.522,VALID,0,VALID,94.0351,VALID,0,VALID,23.7579,VALID,75,VALID,0,
2012-01-09, 01:38:04,VALID,999.511,VALID,0,VALID,94.0427,VALID,0,VALID,23.7384,VALID,75,VALID,0,
2012-01-09, 01:39:04,VALID,999.505,VALID,0,VALID,94.0351,VALID,0,VALID,23.7597,VALID,75,VALID,0.06875,
2012-01-09, 01:40:04,VALID,999.512,VALID,0,VALID,94.0503,VALID,0,VALID,23.7597,VALID,75,VALID,0.151953,
2012-01-09, 01:41:04,VALID,999.502,VALID,0,VALID,94.058,VALID,0,VALID,23.7793,VALID,75,VALID,0,
2012-01-09, 01:42:04,VALID,999.487,VALID,0,VALID,94.0961,VALID,0,VALID,23.7793,VALID,75,VALID,0,
2012-01-09, 01:43:04,VALID,999.462,VALID,0,VALID,94.0808,VALID,0,VALID,23.7793,VALID,75,VALID,0,
2012-01-09, 01:44:04,VALID,999.481,VALID,0,VALID,94.0961,VALID,0,VALID,23.7775,VALID,75,VALID,0.302734,
2012-01-09, 01:45:04,VALID,999.477,VALID,0,VALID,94.0961,VALID,0,VALID,23.7988,VALID,75,VALID,0.290625,
2012-01-09, 01:46:04,VALID,999.477,VALID,0,VALID,94.1266,VALID,0,VALID,23.7775,VALID,75,VALID,0.397266,
2012-01-09, 01:47:04,VALID,999.46,VALID,0,VALID,94.1343,VALID,0,VALID,23.8183,VALID,75,VALID,0.309375,
2012-01-09, 01:48:04,VALID,999.454,VALID,0,VALID,94.1648,VALID,0,VALID,23.8378,VALID,75,VALID,0.227344,
2012-01-09, 01:49:04,VALID,999.425,VALID,0,VALID,94.1724,VALID,0,VALID,23.8378,VALID,75,VALID,0.222656,
2012-01-09, 01:50:04,VALID,999.409,VALID,0,VALID,94.1571,VALID,0,VALID,23.8378,VALID,75,VALID,0,
2012-01-09, 01:51:04,VALID,999.39,VALID,0,VALID,94.1724,VALID,0,VALID,23.8378,VALID,75,VALID,0,
2012-01-09, 01:52:04,VALID,999.389,VALID,0,VALID,94.1495,VALID,0,VALID,23.8378,VALID,75,VALID,0,
2012-01-09, 01:53:04,VALID,999.364,VALID,0,VALID,94.1724,VALID,0,VALID,23.8573,VALID,75,VALID,0,
2012-01-09, 01:54:04,VALID,999.369,VALID,0,VALID,94.1724,VALID,0,VALID,23.8768,VALID,75,VALID,0,
2012-01-09, 01:55:04,VALID,999.374,VALID,0,VALID,94.1877,VALID,0,VALID,23.8555,VALID,75,VALID,0,
2012-01-09, 01:56:04,VALID,999.357,VALID,0,VALID,94.1648,VALID,0.104696,VALID,23.875,VALID,75,VALID,0,
2012-01-09, 01:57:04,VALID,999.352,VALID,0,VALID,94.18,VALID,0,VALID,23.875,VALID,75,VALID,0,
2012-01-09, 01:58:04,VALID,999.331,VALID,0,VALID,94.18,VALID,0.104696,VALID,23.875,VALID,75,VALID,0,
2012-01-09, 01:59:04,VALID,999.307,VALID,0,VALID,94.1724,VALID,0,VALID,23.875,VALID,75,VALID,0,
2012-01-09, 02:00:04,VALID,999.312,VALID,0,VALID,94.1724,VALID,0,VALID,23.875,VALID,75,VALID,0,
2012-01-09, 02:01:04,VALID,999.285,VALID,0,VALID,94.18,VALID,0.104696,VALID,23.8945,VALID,75,VALID,0,
2012-01-09, 02:02:04,VALID,999.273,VALID,0,VALID,94.1495,VALID,0,VALID,23.875,VALID,75,VALID,0,
2012-01-09, 02:03:04,VALID,999.272,VALID,0,VALID,94.1724,VALID,0,VALID,23.8945,VALID,75,VALID,0,
2012-01-09, 02:04:04,VALID,999.251,VALID,0,VALID,94.1724,VALID,0.104696,VALID,23.9159,VALID,75,VALID,0,
2012-01-09, 02:05:04,VALID,999.253,VALID,0,VALID,94.1724,VALID,0,VALID,23.8945,VALID,75,VALID,0,
2012-01-09, 02:06:04,VALID,999.247,VALID,0,VALID,94.18,VALID,0,VALID,23.9354,VALID,75,VALID,0,
2012-01-09, 02:07:04,VALID,999.217,VALID,0,VALID,94.1724,VALID,0,VALID,23.9354,VALID,75,VALID,0,
2012-01-09, 02:08:04,VALID,999.19,VALID,0,VALID,94.1724,VALID,0,VALID,23.9354,VALID,75,VALID,0,
2012-01-09, 02:09:04,VALID,999.197,VALID,0,VALID,94.1724,VALID,0,VALID,23.914,VALID,75,VALID,0,
2012-01-09, 02:10:04,VALID,999.182,VALID,0,VALID,94.18,VALID,0,VALID,23.914,VALID,75,VALID,0,
2012-01-09, 02:11:04,VALID,999.158,VALID,0,VALID,94.18,VALID,0,VALID,23.914,VALID,75,VALID,0,
2012-01-09, 02:12:04,VALID,999.156,VALID,0,VALID,94.18,VALID,0,VALID,23.9354,VALID,75,VALID,0,
2012-01-09, 02:13:04,VALID,999.141,VALID,0,VALID,94.1571,VALID,0,VALID,23.9354,VALID,75,VALID,0,
2012-01-09, 02:14:04,VALID,999.13,VALID,0,VALID,94.1724,VALID,0.104696,VALID,23.9354,VALID,75,VALID,0,
2012-01-09, 02:15:04,VALID,999.093,VALID,0,VALID,94.1877,VALID,0,VALID,23.9354,VALID,75,VALID,0,
2012-01-09, 02:16:04,VALID,999.094,VALID,0,VALID,94.18,VALID,0,VALID,23.9159,VALID,75,VALID,0,
2012-01-09, 02:17:04,VALID,999.098,VALID,0,VALID,94.18,VALID,0,VALID,23.9159,VALID,75,VALID,0,
2012-01-09, 02:18:04,VALID,999.07,VALID,0,VALID,94.18,VALID,0,VALID,23.9159,VALID,75,VALID,0,
2012-01-09, 02:19:04,VALID,999.035,VALID,0,VALID,94.18,VALID,0,VALID,23.8945,VALID,75,VALID,0,
2012-01-09, 02:20:04,VALID,999.04,VALID,0,VALID,94.1724,VALID,0,VALID,23.8945,VALID,75,VALID,0,
2012-01-09, 02:21:04,VALID,999.047,VALID,0,VALID,94.1724,VALID,0,VALID,23.8945,VALID,75,VALID,0,
2012-01-09, 02:22:04,VALID,999.006,VALID,0,VALID,94.1724,VALID,0.104696,VALID,23.9159,VALID,75,VALID,0,
2012-01-09, 02:23:04,VALID,999.006,VALID,0,VALID,94.1877,VALID,0,VALID,23.8963,VALID,75,VALID,0,
2012-01-09, 02:24:04,VALID,998.996,VALID,0,VALID,94.1953,VALID,0,VALID,23.9159,VALID,75,VALID,0,
2012-01-09, 02:25:04,VALID,999.02,VALID,0,VALID,94.2029,VALID,0,VALID,23.914,VALID,75,VALID,0,
2012-01-09, 02:26:04,VALID,998.972,VALID,0,VALID,94.2182,VALID,0,VALID,23.9336,VALID,75,VALID,0,
2012-01-09, 02:27:04,VALID,998.951,VALID,0,VALID,94.2182,VALID,0.104696,VALID,23.9336,VALID,75,VALID,0,
2012-01-09, 02:28:04,VALID,998.939,VALID,0,VALID,94.2258,VALID,0,VALID,23.9549,VALID,75,VALID,0,
2012-01-09, 02:29:04,VALID,998.94,VALID,0,VALID,94.2258,VALID,0,VALID,23.9744,VALID,75,VALID,0,
2012-01-09, 02:30:04,VALID,998.941,VALID,0,VALID,94.2258,VALID,0,VALID,23.9336,VALID,75,VALID,0,
2012-01-09, 02:31:04,VALID,998.907,VALID,0,VALID,94.2258,VALID,0,VALID,23.9744,VALID,75,VALID,0,
2012-01-09, 02:32:04,VALID,998.906,VALID,0,VALID,94.1953,VALID,0,VALID,23.9549,VALID,75,VALID,0,
2012-01-09, 02:33:04,VALID,998.911,VALID,0,VALID,94.2105,VALID,0,VALID,23.9336,VALID,75,VALID,0,
2012-01-09, 02:34:04,VALID,998.913,VALID,0,VALID,94.1953,VALID,0,VALID,23.9549,VALID,75,VALID,0,
2012-01-09, 02:35:04,VALID,998.9,VALID,0,VALID,94.2105,VALID,0,VALID,23.9354,VALID,75,VALID,0,
2012-01-09, 02:36:04,VALID,998.886,VALID,0,VALID,94.2105,VALID,0,VALID,23.9336,VALID,75,VALID,0,
2012-01-09, 02:37:04,VALID,998.849,VALID,0,VALID,94.1953,VALID,0.104696,VALID,23.914,VALID,75,VALID,0,
2012-01-09, 02:38:04,VALID,998.857,VALID,0,VALID,94.2182,VALID,0,VALID,23.914,VALID,75,VALID,0,
2012-01-09, 02:39:04,VALID,998.837,VALID,0,VALID,94.2258,VALID,0,VALID,23.914,VALID,75,VALID,0,
2012-01-09, 02:40:04,VALID,998.848,VALID,0,VALID,94.2258,VALID,0,VALID,23.914,VALID,75,VALID,0,
2012-01-09, 02:41:04,VALID,998.834,VALID,0,VALID,94.2258,VALID,0.104696,VALID,23.914,VALID,75,VALID,0,
2012-01-09, 02:42:04,VALID,998.842,VALID,0,VALID,94.2258,VALID,0,VALID,23.9159,VALID,75,VALID,0,
2012-01-09, 02:43:04,VALID,998.856,VALID,0,VALID,94.2411,VALID,0,VALID,23.9159,VALID,75,VALID,0,
2012-01-09, 02:44:04,VALID,998.835,VALID,0,VALID,94.2029,VALID,0,VALID,23.875,VALID,75,VALID,0,
2012-01-09, 02:45:04,VALID,998.849,VALID,0,VALID,94.2182,VALID,0,VALID,23.8768,VALID,75,VALID,0,
2012-01-09, 02:46:04,VALID,998.845,VALID,0,VALID,94.2029,VALID,0,VALID,23.8555,VALID,75,VALID,0,
2012-01-09, 02:47:04,VALID,998.867,VALID,0,VALID,94.2487,VALID,0,VALID,23.8555,VALID,75,VALID,0,
2012-01-09, 02:48:04,VALID,998.846,VALID,0,VALID,94.2563,VALID,0,VALID,23.8768,VALID,75,VALID,0,
2012-01-09, 02:49:04,VALID,998.798,VALID,0,VALID,94.2411,VALID,0,VALID,23.836,VALID,75,VALID,0,
2012-01-09, 02:50:04,VALID,998.807,VALID,0,VALID,94.2487,VALID,0,VALID,23.8768,VALID,75,VALID,0,
2012-01-09, 02:51:04,VALID,998.811,VALID,0,VALID,94.2487,VALID,0,VALID,23.836,VALID,75,VALID,0,
2012-01-09, 02:52:04,VALID,998.826,VALID,0,VALID,94.2487,VALID,0,VALID,23.8165,VALID,75,VALID,0,
2012-01-09, 02:53:04,VALID,998.834,VALID,0,VALID,94.2487,VALID,0,VALID,23.8165,VALID,75,VALID,0,
2012-01-09, 02:54:04,VALID,998.843,VALID,0,VALID,94.2563,VALID,0,VALID,23.8378,VALID,75,VALID,0,
2012-01-09, 02:55:04,VALID,998.84,VALID,0,VALID,94.2411,VALID,0,VALID,23.8183,VALID,75,VALID,0,
2012-01-09, 02:56:04,VALID,998.819,VALID,0,VALID,94.2411,VALID,0,VALID,23.7988,VALID,75,VALID,0,
2012-01-09, 02:57:04,VALID,998.832,VALID,0,VALID,94.2411,VALID,0,VALID,23.7793,VALID,75,VALID,0,
2012-01-09, 02:58:04,VALID,998.862,VALID,0,VALID,94.2182,VALID,0,VALID,23.7384,VALID,75,VALID,0,
2012-01-09, 02:59:04,VALID,998.838,VALID,0,VALID,94.2182,VALID,0,VALID,23.7597,VALID,75,VALID,0,
2012-01-09, 03:00:04,VALID,998.879,VALID,0,VALID,94.2258,VALID,0,VALID,23.7402,VALID,75,VALID,0,
2012-01-09, 03:01:04,VALID,998.89,VALID,0,VALID,94.2182,VALID,0,VALID,23.7189,VALID,75,VALID,0,
2012-01-09, 03:02:04,VALID,998.891,VALID,0,VALID,94.2258,VALID,0,VALID,23.7207,VALID,75,VALID,0,
2012-01-09, 03:03:04,VALID,998.908,VALID,0,VALID,94.2411,VALID,0,VALID,23.7207,VALID,75,VALID,0,
2012-01-09, 03:04:04,VALID,998.917,VALID,0,VALID,94.2182,VALID,0,VALID,23.6799,VALID,75,VALID,0,
2012-01-09, 03:05:04,VALID,998.925,VALID,0,VALID,94.2182,VALID,0,VALID,23.6817,VALID,75,VALID,0,
2012-01-09, 03:06:04,VALID,998.909,VALID,0,VALID,94.2258,VALID,0,VALID,23.6604,VALID,75,VALID,0,
2012-01-09, 03:07:04,VALID,998.952,VALID,0,VALID,94.2258,VALID,0,VALID,23.6604,VALID,75,VALID,0,
2012-01-09, 03:08:04,VALID,998.93,VALID,0,VALID,94.2411,VALID,0,VALID,23.6604,VALID,75,VALID,0,
2012-01-09, 03:09:04,VALID,998.951,VALID,0,VALID,94.2411,VALID,0,VALID,23.6409,VALID,75,VALID,0,
2012-01-09, 03:10:04,VALID,998.977,VALID,0,VALID,94.2334,VALID,0,VALID,23.6409,VALID,75,VALID,0,
2012-01-09, 03:11:04,VALID,999.003,VALID,0,VALID,94.2258,VALID,0,VALID,23.6214,VALID,75,VALID,0,
2012-01-09, 03:12:04,VALID,999.008,VALID,0,VALID,94.2182,VALID,0,VALID,23.6036,VALID,75,VALID,0,
2012-01-09, 03:13:04,VALID,998.999,VALID,0,VALID,94.2182,VALID,0,VALID,23.6232,VALID,75,VALID,0,
2012-01-09, 03:14:04,VALID,998.979,VALID,0,VALID,94.2334,VALID,0,VALID,23.6019,VALID,75,VALID,0,
2012-01-09, 03:15:04,VALID,999.041,VALID,0,VALID,94.2487,VALID,0,VALID,23.6019,VALID,75,VALID,0,
2012-01-09, 03:16:04,VALID,999.039,VALID,0,VALID,94.2487,VALID,0,VALID,23.6019,VALID,75,VALID,0,
2012-01-09, 03:17:04,VALID,999.015,VALID,0,VALID,94.2716,VALID,0,VALID,23.6214,VALID,75,VALID,0,
2012-01-09, 03:18:04,VALID,999.019,VALID,0,VALID,94.2868,VALID,0,VALID,23.6622,VALID,75,VALID,0,
2012-01-09, 03:19:04,VALID,999.005,VALID,0,VALID,94.3021,VALID,0,VALID,23.6604,VALID,75,VALID,0,
2012-01-09, 03:20:04,VALID,998.998,VALID,0,VALID,94.3097,VALID,0,VALID,23.6817,VALID,58,VALID,0,
2012-01-09, 03:21:04,VALID,998.996,VALID,0,VALID,94.3326,VALID,0,VALID,23.6604,VALID,58,VALID,0,
2012-01-09, 03:22:04,VALID,998.957,VALID,0,VALID,94.325,VALID,0,VALID,23.6622,VALID,58,VALID,0,
2012-01-09, 03:23:04,VALID,998.963,VALID,0,VALID,94.3021,VALID,0,VALID,23.6427,VALID,52,VALID,0,
2012-01-09, 03:24:04,VALID,998.938,VALID,0,VALID,94.3097,VALID,0,VALID,23.6409,VALID,326,VALID,0.838281,
2012-01-09, 03:25:04,VALID,998.924,VALID,0,VALID,94.3326,VALID,0,VALID,23.6622,VALID,323,VALID,0.492578,
2012-01-09, 03:26:04,VALID,998.912,VALID,0,VALID,94.3403,VALID,0,VALID,23.6604,VALID,323,VALID,0.359766,
2012-01-09, 03:27:04,VALID,998.894,VALID,0,VALID,94.3479,VALID,0,VALID,23.6604,VALID,51,VALID,1.09961,
2012-01-09, 03:28:04,VALID,998.896,VALID,0,VALID,94.3784,VALID,0,VALID,23.6604,VALID,48,VALID,1.38828,
2012-01-09, 03:29:04,VALID,998.898,VALID,0,VALID,94.3937,VALID,0,VALID,23.7012,VALID,44,VALID,1.20898,
2012-01-09, 03:30:04,VALID,998.932,VALID,0,VALID,94.386,VALID,0,VALID,23.7012,VALID,37,VALID,0.860937,
2012-01-09, 03:31:04,VALID,998.884,VALID,0,VALID,94.3937,VALID,0,VALID,23.6409,VALID,23,VALID,0.722656,
2012-01-09, 03:32:04,VALID,998.889,VALID,0,VALID,94.3784,VALID,0,VALID,23.6427,VALID,347,VALID,0.909375,
2012-01-09, 03:33:04,VALID,998.901,VALID,0,VALID,94.4013,VALID,0,VALID,23.6427,VALID,335,VALID,0.950781,
2012-01-09, 03:34:04,VALID,998.889,VALID,0,VALID,94.4089,VALID,0,VALID,23.6427,VALID,11,VALID,0.680469,
2012-01-09, 03:35:04,VALID,998.902,VALID,0,VALID,94.386,VALID,0,VALID,23.6036,VALID,57,VALID,0.90625,
2012-01-09, 03:36:04,VALID,998.902,VALID,0,VALID,94.4013,VALID,0,VALID,23.6232,VALID,52,VALID,0.851563,
2012-01-09, 03:37:04,VALID,998.859,VALID,0,VALID,94.386,VALID,0,VALID,23.6232,VALID,52,VALID,0.862891,
2012-01-09, 03:38:04,VALID,998.882,VALID,0,VALID,94.4242,VALID,0,VALID,23.6019,VALID,52,VALID,0.497266,
2012-01-09, 03:39:04,VALID,998.876,VALID,0,VALID,94.4318,VALID,0,VALID,23.6427,VALID,52,VALID,0.208594,
2012-01-09, 03:40:04,VALID,998.882,VALID,0,VALID,94.4318,VALID,0,VALID,23.6019,VALID,52,VALID,0.0980469,
2012-01-09, 03:41:04,VALID,998.88,VALID,0,VALID,94.4013,VALID,0,VALID,23.6232,VALID,52,VALID,0.171875,
2012-01-09, 03:42:04,VALID,998.916,VALID,0,VALID,94.4318,VALID,0,VALID,23.5841,VALID,52,VALID,0,
2012-01-09, 03:43:04,VALID,998.905,VALID,0,VALID,94.3937,VALID,0,VALID,23.5646,VALID,52,VALID,0,
2012-01-09, 03:44:04,VALID,998.918,VALID,0,VALID,94.4089,VALID,0,VALID,23.5451,VALID,52,VALID,0,
2012-01-09, 03:45:04,VALID,998.924,VALID,0,VALID,94.3937,VALID,0,VALID,23.5256,VALID,52,VALID,0,
2012-01-09, 03:46:04,VALID,998.932,VALID,0,VALID,94.3937,VALID,0,VALID,23.5043,VALID,52,VALID,0,
2012-01-09, 03:47:04,VALID,998.895,VALID,0,VALID,94.4013,VALID,0,VALID,23.5256,VALID,52,VALID,0,
2012-01-09, 03:48:04,VALID,998.893,VALID,0,VALID,94.4013,VALID,0,VALID,23.5043,VALID,52,VALID,0,
2012-01-09, 03:49:04,VALID,998.863,VALID,0,VALID,94.4089,VALID,0,VALID,23.5043,VALID,52,VALID,0,
2012-01-09, 03:50:04,VALID,998.827,VALID,0,VALID,94.4242,VALID,0,VALID,23.5061,VALID,52,VALID,0,
2012-01-09, 03:51:04,VALID,998.833,VALID,0,VALID,94.4242,VALID,0,VALID,23.4848,VALID,52,VALID,0,
2012-01-09, 03:52:04,VALID,998.823,VALID,0,VALID,94.4165,VALID,0,VALID,23.4848,VALID,52,VALID,0,
2012-01-09, 03:53:04,VALID,998.78,VALID,0,VALID,94.4394,VALID,0,VALID,23.4653,VALID,52,VALID,0,
2012-01-09, 03:54:04,VALID,998.794,VALID,0,VALID,94.4318,VALID,0,VALID,23.4653,VALID,52,VALID,0,